Regional Weather Roundup
Issued by NWS Green Bay, WI

Home | Current Version | Previous Version | Text Only | Print | Product List | Glossary On
Versions: 1 2 3 4 5 6 7 8 9 10 11 12 13 14 15 16 17 18 19 20 21 22 23 24 25 26 27 28 29 30 31 32 33 34 35 36 37 38 39 40 41 42 43 44 45 46 47 48 49 50
000
ASUS43 KGRB 280511
RWRGRB

NORTH-CENTRAL AND NORTHEAST WISCONSIN REGIONAL WEATHER ROUNDUP
NATIONAL WEATHER SERVICE GREEN BAY WI
1200 AM CDT WED JUN 28 2017

WIZ005-009-010>012-018-019-280600-
NORTH CENTRAL WISCONSIN

CITY           SKY/WX    TMP DP  RH WIND       PRES   REMARKS
IRONWOOD       CLEAR     62  48  60 S10       29.88F
MANITOWISH WTR CLEAR     53  50  88 S3        29.92S
ARBOR VITAE    CLEAR     57  49  74 S5        29.93S
EAGLE RIVER    PTCLDY    57  46  66 S5        29.93F
LAND O LAKES   MOCLDY    57  48  72 S3        29.94F
RHINELANDER    CLEAR     57  50  77 SW6       29.95F
PHILLIPS       CLOUDY    57  48  73 S8        29.91F
ANTIGO         CLEAR     55  49  78 SW7       29.97F
TOMAHAWK       NOT AVBL
MERRILL        CLEAR     58  49  73 SW5       29.96S
$$

WIZ013-073-280600-
NORTHEAST WISCONSIN

CITY           SKY/WX    TMP DP  RH WIND       PRES   REMARKS
IRON MOUNTAIN  CLOUDY    63  46  54 SW8       29.93S
MARINETTE      PTCLDY    61  50  67 SW5       29.96S
OCONTO         MOCLDY    60  49  67 CALM      29.96S
$$

WIZ017-030-035>037-045-280600-
CENTRAL WISCONSIN

CITY           SKY/WX    TMP DP  RH WIND       PRES   REMARKS
MEDFORD        CLEAR     55  48  76 S6        29.94F
WAUSAU           N/A    N/A N/A N/A MISG      29.96R
MOSINEE        CLEAR     54  50  87 S5        29.97F
MARSHFIELD     CLEAR     55  48  77 S6        29.95S
WISC RAPIDS    CLEAR     57  48  72 S6        29.98S
STEVENS POINT  CLEAR     53  49  87 CALM      29.98S
WAUPACA        CLEAR     57  53  88 CALM      29.99R
SHAWANO        PTCLDY    61  50  67 CALM      29.97R
CLINTONVILLE   CLEAR     55  48  76 SW5       29.97S
WAUTOMA        CLEAR     53  51  93 CALM      29.99S
$$

WIZ038-039-048-051-280600-
FOX VALLEY

CITY           SKY/WX    TMP DP  RH WIND       PRES   REMARKS
NWS GREEN BAY  CLEAR     59  54  83 S6        29.98S
APPLETON       CLEAR     59  46  63 SW9       29.98R
OSHKOSH        CLEAR     60  50  69 S7        29.99R
FOND DU LAC    CLEAR     59  48  67 S6        30.00R
$$

WIZ022-050-052-280600-
EAST CENTRAL WISCONSIN

CITY           SKY/WX    TMP DP  RH WIND       PRES   REMARKS
EPHRAIM        FAIR      58  49  72 S3        29.96R
WASHINGTON ISL MOCLDY    61  51  70 S3        29.95R
STURGEON BAY     N/A     60  51  72 S8        29.98R
MANITOWOC      CLEAR     61  50  67 S7        30.00R
SHEBOYGAN      CLEAR     55  52  89 SW5       30.00S
$$

LMZ563-521-522-541>543-280600-
LAKESHORE

STATION/POSITION TIME  TEMP    WIND        PRES    VSBY  WAVE
                       AIR SEA DIR/SP/G                  HT/PER
                 (UTC) (F)     (DEG/KT/KT) (MB)    (MI)  (FT/S)
SHEBOYGAN LKSHOR 0500   60     190/  9/ 10 1015.7R
KEWAUNEE LKSHORE 0448   53     190/  5/  6 1015.1R
ALGOMA MARINA    0503   56      CALM  /  2   N/A
NORTHPORT PIER   0440   60     170/  2/  8 1014.2S
N MID LAKE BUOY  0450   57 55  190/ 14/ 14 1015.1R         3/ 5
S GREEN BAY BUOY 0430   67     210/ 12/ 14 1014.4R
SISTER BAY LKSHO 0423   66     200/ 11/ 15   N/A
CHAMBERS ISLAND  0440   65     180/  4/  9 1013.9R
MENOMINEE LKSHOR 0448          210/  7/ 11 1013.5R
$$




USA.gov is the U.S. government's official web portal to all federal, state and local government web resources and services.